Monticello, KY

3:04 PM EST on November 20, 2019 (GMT -0500)
Wayne County

Weather History for KEKQ - October, 2019

Change the Weather History Date:

Wednesday, October 23, 2019

  Actual Average Record
Temperature  
Mean Temperature 47 °F -  
Max Temperature 64 °F 68 °F 84 °F (1963)
Min Temperature 30 °F 41 °F 22 °F (1987)
Degree Days  
Heating Degree Days 18    
Moisture  
Dew Point 35 °F    
Average Humidity 71    
Maximum Humidity 100    
Minimum Humidity 28    
Precipitation  
Precipitation 0.00 in - - ()
Sea Level Pressure  
Sea Level Pressure 30.19 in    
Wind  
Wind Speed 7 mph (NW)    
Max Wind Speed 14 mph    
Max Gust Speed 17 mph    
Visibility 10 miles    
Events      
Averages and records for this station are not official NWS values.
T = Trace of Precipitation, MM = Missing Value Source: NWS Daily Summary

Daily Weather History Graph

Daily Weather History Graph

Search for Another Location

Airport or City:

Astronomy

Oct. 23, 2019 Rise Set
Actual Time 6:54 AM CDT 5:52 PM CDT
Civil Twilight 6:27 AM CDT 6:19 PM CDT
Nautical Twilight 5:57 AM CDT 6:49 PM CDT
Astronomical Twilight 5:27 AM CDT 7:19 PM CDT
Moon 1:22 AM CDT (10/23) 3:32 PM CDT (10/23)
Length of Visible Light 11h 51m
Length of Day
10h 58m
Waning Crescent, 26% of the Moon is Illuminated
Oct 23
Waning Crescent
Oct 27
New
Nov 4
First Quarter
Nov 12
Full
Nov 19
Last Quarter

Hourly Weather History & Observations

Time (CDT) Temp. Windchill Dew Point Humidity Pressure Visibility Wind Dir Wind Speed Gust Speed Precip Events Conditions
12:56 AM 41.0 °F 36.4 °F 37.0 °F 86% 30.08 in 10.0 mi Variable 6.9 mph - N/A   Clear
1:56 AM 39.0 °F 36.8 °F 37.9 °F 96% 30.10 in 10.0 mi Variable 3.5 mph - N/A   Clear
3:56 AM 36.0 °F 29.6 °F 35.1 °F 97% 30.13 in 10.0 mi West 8.1 mph - N/A   Clear
4:56 AM 33.1 °F 26.1 °F 33.1 °F 100% 30.14 in 10.0 mi NNE 8.1 mph - N/A   Clear
5:56 AM 32.0 °F - 32.0 °F 100% 30.16 in 10.0 mi Calm Calm - N/A   Clear
6:56 AM 30.9 °F - 30.0 °F 96% 30.16 in 10.0 mi Calm Calm - N/A   Clear
7:56 AM 39.0 °F 35.7 °F 39.0 °F 100% 30.19 in 10.0 mi Variable 4.6 mph - N/A   Clear
8:56 AM 48.9 °F - 41.0 °F 74% 30.21 in 10.0 mi West 10.4 mph - N/A   Clear
9:56 AM 55.0 °F - 37.9 °F 53% 30.22 in 10.0 mi West 10.4 mph - N/A   Clear
10:56 AM 57.9 °F - 36.0 °F 44% 30.23 in 10.0 mi WNW 6.9 mph - N/A   Clear
11:56 AM 60.1 °F - 28.9 °F 31% 30.22 in 10.0 mi North 13.8 mph 17.3 mph N/A   Clear
12:56 PM 61.0 °F - 32.0 °F 34% 30.22 in 10.0 mi NNW 9.2 mph - N/A   Clear
1:56 PM 62.1 °F - 33.1 °F 34% 30.20 in 10.0 mi NNW 9.2 mph - N/A   Clear
2:56 PM 63.0 °F - 32.0 °F 31% 30.19 in 10.0 mi Variable 5.8 mph - N/A   Clear
3:56 PM 64.0 °F - 30.0 °F 28% 30.19 in 10.0 mi Variable 6.9 mph - N/A   Clear
4:56 PM 63.0 °F - 33.1 °F 33% 30.18 in 10.0 mi West 9.2 mph - N/A   Clear
5:56 PM 51.1 °F - 37.9 °F 61% 30.20 in 10.0 mi West 3.5 mph - N/A   Clear
6:56 PM 45.0 °F 40.6 °F 37.9 °F 76% 30.22 in 10.0 mi NNW 8.1 mph - N/A   Clear
7:56 PM 42.1 °F 36.6 °F 37.9 °F 85% 30.24 in 10.0 mi NW 9.2 mph - N/A   Clear
8:56 PM 42.1 °F 36.6 °F 37.9 °F 85% 30.24 in 10.0 mi West 9.2 mph - N/A   Clear
9:56 PM 37.9 °F 33.5 °F 37.0 °F 97% 30.25 in 10.0 mi West 5.8 mph - N/A   Clear
10:56 PM 37.0 °F - 36.0 °F 96% 30.24 in 10.0 mi Calm Calm - N/A   Clear
11:56 PM 36.0 °F 29.6 °F 35.1 °F 97% 30.23 in 10.0 mi NNE 8.1 mph - N/A   Clear